AirNav   Everest Fuels
 
 977 users online  

KZER Schuylkill County/Joe Zerbey Airport
Pottsville, Pennsylvania, USA

GOING TO POTTSVILLE?


FAA INFORMATION EFFECTIVE 21 MAY 2020

Location

FAA Identifier: ZER
Lat/Long: 40-42-24.3600N 076-22-22.7500W
40-42.406000N 076-22.379167W
40.7067667,-76.3729861
(estimated)
Elevation: 1729.4 ft. / 527.1 m (surveyed)
Variation: 12W (2000)
From city: 8 miles W of POTTSVILLE, PA
Time zone: UTC -4 (UTC -5 during Standard Time)
Zip code: 17921

Airport Operations

Airport use: Open to the public
Activation date: 10/1959
Control tower: no
ARTCC: NEW YORK CENTER
FSS: WILLIAMSPORT FLIGHT SERVICE STATION
NOTAMs facility: IPT (NOTAM-D service available)
Attendance: MON-FRI 0730-1700, ALL SAT - SUN ON CALL
FOR SVC AFTER HRS 570-617-6002.
Wind indicator: lighted
Segmented circle: no
Lights: ACTIVATE REIL RY 11/29; MIRL RY 11/29 - CTAF.
Beacon: white-green (lighted land airport)
Operates sunset to sunrise.

Airport Communications

CTAF/UNICOM: 123.075
WX AWOS-3: 127.575 (570-544-2778)
HARRISBURG APPROACH: 118.25
HARRISBURG DEPARTURE: 118.25
WX AWOS-3 at N79 (11 nm NW): 119.175 (570-672-0389)
WX ASOS at MUI (19 nm SW): 124.175 (717-861-2536)
WX AWOS-3 at 79PN (19 nm NW): 118.075 (570-271-8192)

Nearby radio navigation aids

VOR radial/distance  VOR name  Freq  Var
RAVr059/13.8RAVINE VORTAC114.6011W
MIPr154/23.2MILTON VORTAC109.2009W
SEGr110/23.8SELINSGROVE VOR/DME110.4008W
ETXr293/32.3EAST TEXAS VOR/DME110.2009W
LRPr003/35.4LANCASTER VOR/DME117.3009W
HARr063/40.0HARRISBURG VORTAC112.5010W

 
NDB name  Hdg/Dist  Freq  Var  ID
BELLGROVE037/18.232810WBZJ -... --.. .---

Airport Services

Fuel available: 100LL JET-A
AVGAS SELF SERVE WITH CREDIT CARD.
JET-A SELF-SERVE WITH CREDIT CARD.
Parking: hangars and tiedowns
Airframe service: MINOR
Powerplant service: MINOR
Bottled oxygen: NONE
Bulk oxygen: NONE

Runway Information

Runway 11/29

Dimensions: 4599 x 75 ft. / 1402 x 23 m
Surface: asphalt, in good condition
Weight bearing capacity: 
Single wheel: 21.0
Runway edge lights: medium intensity
RUNWAY 11  RUNWAY 29
Latitude: 40-42.385858N40-42.282017N
Longitude: 076-23.021483W076-22.035672W
Elevation: 1729.4 ft.1706.5 ft.
Traffic pattern: leftleft
Runway heading: 110 magnetic, 098 true290 magnetic, 278 true
Markings: nonprecision, in good conditionnonprecision, in good condition
Visual slope indicator: 2-light PAPI on left (3.00 degrees glide path)
PAPI ON CONTINUOUSLY.
2-light PAPI on left (3.00 degrees glide path)
PAPI ON CONTINUOUSLY.
Runway end identifier lights: yesyes
Touchdown point: yes, no lightsyes, no lights
Obstructions: 28 ft. trees, 562 ft. from runway, 488 ft. right of centerline, 13:1 slope to clearnone

Runway 4/22

Dimensions: 2523 x 140 ft. / 769 x 43 m
Surface: turf, in good condition
Runway edge markings: RY 04/22 EDGE & DSPLCD THLD MKD WITH ORANGE CONES.
Operational restrictions: NOT MAINTAINED WINTER MONTHS.
RUNWAY 4  RUNWAY 22
Latitude: 40-42.360000N40-42.714500N
Longitude: 076-22.249333W076-21.964667W
Elevation: 1707.1 ft.1714.4 ft.
Traffic pattern: leftleft
Runway heading: 043 magnetic, 031 true223 magnetic, 211 true
Displaced threshold: no200 ft.
Markings: none, in poor conditionnone, in poor condition
Touchdown point: yes, no lightsyes, no lights
Obstructions: 34 ft. trees, 636 ft. from runway, 257 ft. right of centerline, 19:1 slope to clear30 ft. trees, 98 ft. from runway, 232 ft. left of centerline, 3:1 slope to clear
APCH RATIO 10:1 TO DSPLCD THLD.

Airport Ownership and Management from official FAA records

Ownership: Publicly-owned
Owner: SCHUYLKILL COUNTY A/P AUTH
240 AIRPORT ROAD
POTTSVILLE, PA 17901
Phone 570-544-6002
Manager: BILL WILLARD
240 AIRPORT ROAD
POTTSVILLE, PA 17901
Phone (570) 617-6002

Airport Operational Statistics

Aircraft based on the field: 18
Single engine airplanes: 16
Jet airplanes: 2
    
Aircraft operations: avg 77/day *
45% local general aviation
31% transient general aviation
22% military
2% air taxi
* for 12-month period ending 05 September 2019

Additional Remarks

DEER ON & INVOF ARPT.
FOR CD CTC HARRISBURG APCH AT 800-932-0712.
GPU AVAILABLE FOR AC/DC POWER.

Instrument Procedures

NOTE: All procedures below are presented as PDF files. If you need a reader for these files, you should download the free Adobe Reader.

NOT FOR NAVIGATION. Please procure official charts for flight.
FAA instrument procedures published for use from 21 May 2020 at 0901Z to 18 June 2020 at 0900Z.

 
IAPs - Instrument Approach Procedures
RNAV (GPS) RWY 11   download (260KB)
RNAV (GPS) RWY 29   download (253KB)
VOR-A   download (189KB)
NOTE: Special Take-Off Minimums/Departure Procedures apply   download (149KB)

Other nearby airports with instrument procedures:

N79 - Northumberland County Airport (11 nm NW)
74N - Bendigo Airport (12 nm SW)
N13 - Bloomsburg Municipal Airport (18 nm N)
KMUI - Muir Army Airfield (Fort Indiantown Gap) (19 nm SW)
8N8 - Danville Airport (19 nm NW)
 
Loc | Ops | Rwys | IFR | FBO | Links
Com | Nav | Svcs | Stats | Notes
Area around KZER (Schuylkill County/Joe Zerbey Airport)
 
Road maps at: MapQuest Bing Google
 
Aerial photo
WARNING: Photo may not be current or correct
Aerial photo of KZER (Schuylkill County/Joe Zerbey Airport)
Photo by David Newcomer
Photo taken 03-Feb-2017
looking northeast from 4,000 altitude.

Do you have a better or more recent aerial photo of Schuylkill County/Joe Zerbey Airport that you would like to share? If so, please send us your photo.

 
Sectional chart

 
Airport distance calculator
Flying to Schuylkill County/Joe Zerbey Airport? Find the distance to fly.

From to KZER

Sunrise and sunset
Times for 28-May-2020
 Local
(UTC-4)
 Zulu
(UTC)
Morning civil twilight05:0709:07
Sunrise05:3909:39
Sunset20:2700:27
Evening civil twilight20:5900:59

Current date and time
Zulu (UTC)  29-May-2020 00:02:03
Local (UTC-4)  28-May-2020 20:02:03
 
METAR
KMUI 
20nm SW 
282356Z 16006KT 10SM BKN018 BKN035 BKN200 25/22 A3000 RMK AO2A SLP159 60003 T02470216 10266 20231 55002
KSEG 
23nm W 
282353Z AUTO 16010KT 10SM FEW028 26/21 A2996 RMK AO2 SLP143 60000 T02560206 10283 20239 55005
KHZL 
24nm NE 
282355Z AUTO 15007G14KT 10SM SCT013 SCT018 BKN027 22/20 A3007 RMK AO2
KRDG 
28nm SE 
282354Z AUTO 15006KT 10SM FEW018 BKN024 OVC033 26/22 A3000 RMK AO2 SLP161 60000 T02560222 10272 20239 56004
K22N 
28nm E 
282355Z AUTO 13004KT 10SM OVC016 23/22 A3002 RMK AO2
KMDT 
35nm SW 
282356Z 16007KT 10SM FEW022 SCT035 BKN250 25/21 A2998 RMK AO2 SLP152 60000 T02500211 10272 20233 55000
KLNS 
36nm S 
282353Z 18013KT 10SM FEW018 SCT022 25/21 A3001 RMK AO2 SLP158 60000 T02500206 10267 20244 56005
KCXY 
37nm SW 
282356Z 15011KT 10SM FEW027 27/21 A2998 RMK AO2 SLP151 60000 T02670206 10294 20250 53001
TAF
KMUI 
20nm SW 
281900Z 2819/3001 19012KT 9999 BKN012 OVC020 QNH3000INS BECMG 2820/2821 16009KT 8000 BR OVC015 QNH3000INS TEMPO 2823/2902 6000 -TSRA OVC010CB BECMG 2903/2904 15007KT 6000 BR BKN007 OVC010 QNH2997INS BECMG 2915/2916 21015G25KT 9000 -SHRA OVC020 QNH2999INS TEMPO 2916/2920 8000 -TSRA OVC015CB TEMPO 2920/3001 4800 TSRA OVC010CB TX26/2919Z TN21/2904Z LAST NO AMDS AFT 2904 NEXT 2911
NOTAMs
Click for the latest NOTAMs
NOTAMs are issued by the DoD/FAA and will open in a separate window not controlled by AirNav.

 

 
 

FBO, Fuel Providers, and Aircraft Ground Support

  
 Business Name 
 
 Contact 
 
 Services / Description 
 
Fuel Prices
 
Comments
  
Schuylkill County Airport 570-544-6002
no information available

If you are affiliated with Schuylkill County Airport and would like to show here your services, contact info, web link, logo, and more, click here
100LL Jet A
FS $5.23 $3.83 
SS $5.13 $3.73 
 Updated 13-May-2020
 
   1 read write
FS=Full service
SS=Self service
Update Fuel Prices
 

Would you like to see your business listed on this page?

 If your business provides an interesting product or service to pilots, flight crews, aircraft, or users of the Schuylkill County/Joe Zerbey Airport, you should consider listing it here.  To start the listing process, click on the button below
 
Add a business
 

Other Pages about Schuylkill County/Joe Zerbey Airport

Update a link
 
Copyright © AirNav, LLC. All rights reserved. Privacy Policy  Contact